Total_Precipitation_Accumulation
0.03 0.04 0.04 0.05 0.08 0.07 0.05 0.08 0.10 0.12 0.12 0.14 0.21 0.35 0.47 0.62 0.70 0.88 1.09 1.17 1.20 1.40 1.91 2.35 2.48 2.58 2.89 3.11 3.28 3.24 3.46 3.87 4.13 4.54 4.56 4.81 5.32 5.67 5.77 5.83 5.79 5.74 5.67 5.68
0.05 0.05 0.05 0.04 0.05 0.05 0.04 0.07 0.10 0.13 0.15 0.17 0.29 0.47 0.52 0.64 0.77 1.02 1.25 1.27 1.23 1.40 1.76 2.21 2.43 2.79 3.09 3.19 3.40 3.51 3.63 4.12 4.61 5.20 5.75 6.15 6.60 6.63 6.73 6.66 6.51 6.19 6.05 5.99
0.06 0.05 0.03 0.03 0.03 0.04 0.04 0.06 0.09 0.12 0.18 0.22 0.33 0.58 0.67 0.77 0.90 1.09 1.21 1.18 1.25 1.48 1.83 2.12 2.42 2.80 3.10 3.23 3.43 3.57 3.90 4.55 5.41 5.99 6.50 7.05 7.41 7.10 6.82 6.54 6.42 6.32 6.26 6.21
0.05 0.03 0.03 0.04 0.04 0.04 0.06 0.07 0.08 0.10 0.18 0.31 0.35 0.69 0.99 1.10 1.22 1.16 1.20 1.33 1.47 1.63 1.82 2.08 2.38 2.66 2.92 3.25 3.37 3.61 4.25 4.94 5.58 6.20 6.83 7.41 7.68 7.69 7.44 6.86 6.38 5.99 5.73 5.54
0.05 0.04 0.04 0.05 0.06 0.05 0.07 0.08 0.09 0.12 0.19 0.31 0.36 0.67 1.23 1.51 1.57 1.47 1.50 1.56 1.58 1.61 1.77 1.97 2.21 2.43 2.55 2.92 3.38 3.71 4.36 5.05 5.70 6.47 7.21 7.63 7.84 7.82 7.45 6.67 5.88 5.33 5.03 4.78
0.05 0.05 0.06 0.06 0.05 0.06 0.07 0.10 0.13 0.18 0.27 0.42 0.42 0.67 1.37 1.79 1.89 1.85 1.77 1.76 1.69 1.63 1.62 1.71 1.97 2.14 2.40 2.77 3.21 3.70 4.06 4.70 5.45 6.08 6.64 6.82 6.97 6.91 6.47 6.05 5.55 5.15 4.66 4.22
0.08 0.08 0.07 0.07 0.06 0.06 0.08 0.17 0.37 0.53 0.58 0.54 0.43 0.71 1.40 1.71 1.64 1.63 1.64 1.71 1.70 1.53 1.53 1.77 2.04 2.02 2.31 2.66 3.08 3.57 3.99 4.43 4.97 5.51 6.00 6.23 6.39 6.31 5.81 5.36 4.93 4.51 4.02 3.63
0.16 0.13 0.08 0.07 0.07 0.08 0.08 0.17 0.44 0.67 0.70 0.71 0.68 1.09 1.63 1.68 1.52 1.38 1.36 1.41 1.55 1.59 1.62 1.72 1.84 1.93 2.26 2.55 2.86 3.28 3.62 4.01 4.25 4.51 4.93 5.22 5.41 5.27 4.91 4.44 3.94 3.64 3.32 2.99
0.24 0.20 0.09 0.06 0.07 0.08 0.11 0.16 0.25 0.34 0.42 0.72 1.12 1.44 1.83 1.80 1.70 1.51 1.34 1.33 1.46 1.46 1.52 1.66 1.81 1.95 2.15 2.52 2.99 3.21 3.26 3.46 3.69 3.97 4.13 4.19 4.30 4.21 3.96 3.64 3.30 3.01 2.73 2.45
0.21 0.25 0.12 0.08 0.07 0.10 0.11 0.14 0.20 0.35 0.68 0.98 1.28 1.82 2.20 2.29 2.27 2.10 1.67 1.50 1.45 1.48 1.54 1.64 1.76 1.97 2.04 2.09 2.49 2.89 2.96 3.06 3.16 3.29 3.37 3.28 3.40 3.31 3.25 3.06 2.79 2.53 2.35 2.14
0.23 0.28 0.19 0.12 0.13 0.16 0.17 0.18 0.23 0.35 0.51 0.95 1.41 2.07 2.28 2.58 2.67 2.54 2.10 1.88 1.84 1.77 1.69 1.69 1.71 1.77 1.91 2.00 2.18 2.44 2.69 2.74 2.81 2.98 2.99 2.88 2.97 2.95 2.96 2.82 2.61 2.47 2.43 2.30
0.25 0.30 0.31 0.21 0.17 0.14 0.16 0.21 0.30 0.57 0.63 0.71 1.26 2.27 2.56 2.71 2.61 2.34 2.13 1.95 1.84 1.74 1.62 1.58 1.56 1.56 1.64 1.84 2.08 2.26 2.41 2.43 2.52 2.66 2.77 2.84 2.88 2.79 2.68 2.50 2.38 2.28 2.16 2.03
0.25 0.42 0.66 0.66 0.52 0.31 0.23 0.24 0.30 0.40 0.59 0.78 1.36 2.52 2.96 2.85 2.69 2.36 2.24 2.14 2.06 1.95 1.74 1.62 1.55 1.56 1.59 1.69 1.81 1.98 2.22 2.33 2.37 2.39 2.38 2.56 2.61 2.49 2.35 2.25 2.21 2.14 2.00 1.95
0.25 0.42 0.80 1.29 1.04 0.62 0.41 0.32 0.36 0.52 0.83 0.98 1.31 1.91 2.26 2.35 2.41 2.41 2.54 2.57 2.36 2.15 1.90 1.65 1.60 1.58 1.59 1.68 1.71 1.76 1.90 2.09 2.24 2.33 2.48 2.54 2.47 2.34 2.24 2.06 1.88 1.78 1.72 1.78
0.31 0.50 0.49 0.53 0.53 0.56 0.56 0.49 0.46 0.58 0.70 1.08 1.43 1.81 2.14 2.21 2.22 2.26 2.45 2.37 2.08 1.93 1.77 1.64 1.63 1.69 1.68 1.63 1.62 1.65 1.82 1.91 2.13 2.26 2.26 2.22 2.17 2.13 2.11 2.04 1.88 1.70 1.58 1.52
0.38 0.54 0.56 0.58 0.47 0.56 0.57 0.56 0.60 0.70 0.83 1.10 1.45 1.96 2.21 2.21 2.20 2.23 2.33 2.30 2.08 1.78 1.66 1.63 1.58 1.67 1.62 1.55 1.48 1.45 1.61 1.67 1.83 1.97 1.98 1.93 1.92 2.02 1.99 1.91 1.78 1.67 1.57 1.51
0.48 0.71 0.90 0.87 0.56 0.78 1.07 0.84 0.88 0.99 1.03 1.24 1.68 1.90 1.99 2.11 2.12 2.17 2.27 2.32 2.19 1.92 1.81 1.83 1.87 1.89 1.72 1.59 1.52 1.55 1.60 1.65 1.72 1.80 1.76 1.78 1.80 1.80 1.79 1.63 1.55 1.58 1.62 1.52
0.51 0.81 0.95 0.92 1.06 1.61 1.40 0.81 0.88 1.08 1.11 1.14 1.28 1.41 1.59 1.79 1.90 2.05 2.20 2.32 2.30 2.18 2.14 2.15 2.11 1.97 1.78 1.66 1.64 1.65 1.61 1.65 1.73 1.71 1.64 1.60 1.62 1.58 1.57 1.57 1.54 1.53 1.53 1.48
0.38 0.76 1.06 1.23 1.55 1.71 1.42 0.88 0.85 1.24 1.49 1.19 1.18 1.20 1.22 1.27 1.49 1.94 2.03 2.08 2.20 2.16 2.12 2.04 1.98 1.87 1.74 1.61 1.57 1.56 1.57 1.54 1.54 1.46 1.42 1.36 1.39 1.46 1.48 1.46 1.54 1.52 1.43 1.38
0.41 0.62 1.13 1.44 1.85 2.11 1.80 0.89 0.69 1.18 1.98 1.41 1.22 1.28 1.30 1.45 1.76 1.81 1.65 1.63 1.72 1.72 1.73 1.79 1.81 1.74 1.61 1.49 1.41 1.43 1.48 1.46 1.39 1.35 1.35 1.25 1.25 1.32 1.38 1.41 1.45 1.38 1.33 1.30
0.86 0.95 1.18 1.46 1.89 2.05 1.24 0.76 0.93 1.97 2.37 1.64 1.35 1.38 1.51 1.65 1.64 1.34 1.22 1.26 1.33 1.47 1.47 1.48 1.65 1.71 1.53 1.32 1.27 1.37 1.39 1.37 1.23 1.21 1.28 1.28 1.26 1.27 1.29 1.32 1.35 1.31 1.27 1.29
1.09 1.26 1.35 1.54 2.04 2.20 1.15 0.95 1.49 1.88 1.49 1.38 1.38 1.34 1.35 1.25 1.09 1.02 1.04 1.07 1.08 1.24 1.36 1.34 1.47 1.46 1.30 1.20 1.24 1.33 1.33 1.22 1.16 1.23 1.35 1.33 1.31 1.20 1.19 1.35 1.38 1.32 1.29 1.25
0.98 1.16 1.46 1.73 2.01 1.67 1.10 1.10 1.18 1.18 1.21 1.13 1.11 1.02 0.96 0.98 0.95 0.92 0.98 1.03 1.05 1.13 1.23 1.21 1.28 1.29 1.20 1.16 1.23 1.31 1.28 1.19 1.25 1.34 1.39 1.41 1.32 1.29 1.27 1.34 1.37 1.31 1.29 1.20
0.95 0.76 1.03 1.39 1.40 1.11 0.99 0.95 0.94 0.93 1.02 0.99 0.93 0.94 0.81 0.83 0.89 0.92 0.96 1.08 1.15 1.18 1.16 1.16 1.24 1.22 1.16 1.10 1.10 1.15 1.08 1.09 1.27 1.43 1.41 1.40 1.39 1.37 1.32 1.28 1.22 1.20 1.18 1.12
0.92 0.92 1.15 1.38 1.18 0.98 0.86 0.78 0.80 0.87 0.87 0.86 0.90 0.94 0.86 0.82 0.91 0.92 0.91 0.99 1.06 1.11 1.11 1.14 1.24 1.25 1.11 1.02 1.00 1.00 1.05 1.14 1.31 1.36 1.33 1.31 1.33 1.31 1.29 1.18 1.09 1.09 1.02 0.91
0.86 1.05 1.31 1.37 1.11 1.16 1.04 0.79 0.73 0.89 0.99 0.93 0.92 0.96 0.85 0.83 0.90 0.96 0.99 0.97 1.00 1.07 1.09 1.14 1.13 1.09 1.01 0.91 0.89 0.94 0.99 1.05 1.20 1.21 1.18 1.17 1.22 1.22 1.16 1.11 1.02 0.93 0.83 0.81